Simultaneous Nadir Overpasses (SNOs) Predictions

Prediction of SNOs between NPP and TERRA Satellite Orbit:

Table of predicted SNOs for the next 14.0 days since TLE Epoch: 10/31/2025
Index Date (NPP) Time (NPP) Lat,Lon (NPP) SZA (NPP ) Date (TERRA) Time (TERRA) Lat,Lon (TERRA) SZA (TERRA ) Distance(km) Time Diff (sec)
1 11/02/2025 16:59:43 -75.08, 92.10 89.86 11/02/2025 17:00:52 -74.98, 93.72 90.03 47.78 69
2 11/02/2025 17:50:20 74.66, -99.40 89.70 11/02/2025 17:50:17 74.65, -99.42 89.69 1.48 3
3 11/02/2025 18:40:53 -74.12, 69.33 90.88 11/02/2025 18:39:45 -74.19, 67.20 90.72 65.27 68
4 11/05/2025 03:21:18 74.70, 117.76 90.48 11/05/2025 03:22:18 74.70, 117.64 90.47 3.51 60
5 11/05/2025 04:12:01 -74.65, -74.78 89.57 11/05/2025 04:11:38 -74.66, -74.79 89.56 0.79 23
6 11/07/2025 13:42:58 -74.70, 142.36 88.80 11/07/2025 13:43:37 -74.73, 142.33 88.78 3.45 39
7 11/07/2025 14:33:43 74.66, -50.23 91.17 11/07/2025 14:32:57 74.66, -50.18 91.17 1.60 46
8 11/10/2025 00:04:41 74.72, 166.89 91.92 11/10/2025 00:04:57 74.70, 166.88 91.90 1.66 16
9 11/10/2025 00:55:24 -74.66, -25.65 88.13 11/10/2025 00:54:17 -74.66, -25.54 88.13 3.11 67
10 11/12/2025 09:35:43 74.97, 23.45 92.86 11/12/2025 09:36:54 74.88, 24.26 92.73 25.54 71
11 11/12/2025 10:26:21 -74.68,-168.41 87.46 11/12/2025 10:26:17 -74.69,-168.54 87.45 3.80 4



Historial Predications of SNOs between NPP and TERRA
